SBBRSBPJ

Guest
Details From SBBR - Brasilia Presidente Juscelino Kubitsch
To SBPJ - Tocantins
Flight Number -
Tags generated
Created
Modified
Stats Distance 337 nm / 624 km
Max Altitude 24,500 ft / 7,468 m
Waypoints 5
Social Downloads 6
Likes 0
Share VATSIM

Download

Looking for another format? Having issues loading an existing format? Contact us
Advertisement - Login to hide

Notes

Basic altitude profile: - Ascent Rate: 1000ft/min - Ascent Speed: 160kts - Cruise Altitude: 10000ft - Cruise Speed: 230kts - Descent Rate: 1000ft/min - Descent Speed: 160kts

Route

SBBR VARSO UW6 PMS SBPJ

ID Type Via Altitude Latitude Longitude Leg Dist Tot Dist Heading (true) Name
O SBBR APT - 0 ft / 0 m -15.87110˚ -47.91863˚ - 0 nm - Brasilia Presidente Juscelino Kubitsch
VARSO FIX - 10,000 ft / 3,048 m -14.32317˚ -48.11650˚ 93 nm 93 nm 353° / 353° -
RUSTE FIX UW6 (AWY-HI) 24,500 ft / 7,468 m -12.25767˚ -48.24133˚ 124 nm 217 nm 357° / 357° -
PMS VOR UW6 (AWY-HI) 24,500 ft / 7,468 m -10.28792˚ -48.35842˚ 118 nm 336 nm 357° / 357° PALMAS VOR-DME
O SBPJ APT - 0 ft / 0 m -10.29152˚ -48.35697˚ 0 nm 336 nm 158° / 158° Tocantins

Altitude Profile

Advertisement - Login to hide

Weather


0- 5 10 15 20 25 30 35+ Temperature / ° C

Clouds and Precipitation
Forecast for 2018-05-21 12:00 UTC. Updated 2 hours ago

Ground ~20,000 ft ~40,000 ft Winds

SBBR

Details ICAO SBBR (BSB)
Name Brasilia Presidente Juscelino Kubitsch
Region Brazil
Timezone America/Sao_Paulo (UTC-3.0)
Stats Elevation 3,479 ft / 1,060 m (AMSL)
Location -15.871101° -47.918626°
Runways 2
Magnetic Variation 21.593° W

METAR

SBBR 211000Z 00000KT CAVOK 09/08 Q1020

Decode

TAF

TAF SBBR 210200Z 2106/2206 19005KT CAVOK TN15/2110Z TX23/2118Z BECMG 2112/2114 22005KT 7000 SCT015 PROB30 2112/2114 BKN007 BECMG 2118/2120 25005KT 7000 SCT030 BECMG 2200/2202 26005KT CAVOK RMK PDE

Decode

Departure Runways

ID Width Length Bearing (true) Bearing (mag) Surface Threshold Offset Overrun Length
11L 148 ft / 45 m 10,493 ft / 3,198 m 86.35° 107.94° Asphalt 0 ft / 0 m 200 ft / 61 m
11R 148 ft / 45 m 10,839 ft / 3,304 m 86.00° 107.59° Asphalt 2,635 ft / 803 m 200 ft / 61 m
29L 148 ft / 45 m 10,839 ft / 3,304 m 265.99° 287.58° Asphalt 0 ft / 0 m 200 ft / 61 m
29R 148 ft / 45 m 10,493 ft / 3,198 m 266.34° 287.93° Asphalt 0 ft / 0 m 200 ft / 61 m

SBPJ

Details ICAO SBPJ (PMW)
Name Tocantins
Region Brazil
Timezone America/Araguaina (UTC-3.0)
Stats Elevation 774 ft / 236 m (AMSL)
Location -10.291524° -48.356972°
Runways 1
Magnetic Variation 21.285° W

METAR

Not found

TAF

TAF SBPJ 210200Z 2106/2118 13005KT 7000 FEW025 TN22/2106Z TX33/2117Z BECMG 2112/2114 34005KT 7000 FEW030 RMK PDE

Decode

Destination Runways

ID Width Length Bearing (true) Bearing (mag) Surface Threshold Offset Overrun Length
14 148 ft / 45 m 8,194 ft / 2,497 m 124.06° 145.34° Asphalt 0 ft / 0 m 0 ft / 0 m
32 148 ft / 45 m 8,194 ft / 2,497 m 304.06° 325.34° Asphalt 0 ft / 0 m 0 ft / 0 m

Popular Alternatives